User: anonymous   Login
Location: Knowlton
(51.2333°N, 1.2667°E)
Time: 10:03:25
(UTC+00:00)
Language:

ZACube-1 - Orbit

View from above orbital plane
View from above orbital plane
View from above satellite
View from above satellite

Ground track
Ground track

The orbit data is extracted from the following two-line orbital elements,

1 39417U 13066B   22276.62971760  .00004096  00000-0  49906-3 0  9997
2 39417  97.6492 243.3296 0058753  51.0006 309.6419 14.82678564479151
Epoch (UTC): 03 October 2022 15:06:47
Eccentricity: 0.0058753
inclination: 97.6492°
perigee height: 580 km
apogee height: 662 km
right ascension of ascending node: 243.3296°
argument of perigee: 51.0006°
revolutions per day: 14.82678564
mean anomaly at epoch: 309.6419°
orbit number at epoch: 47915

The dashed part of the orbit path shows where the satellite is in the earth's shadow,  

DLR